{"data":{"norad_id":52448,"epoch":"2026-08-05T13:41:33.810144Z","epoch_age_seconds":4092550,"freshness":"OLD","line1":"1 52448U 22048F   26217.57053021  .02769964  25831-5  77927-3 0  9992","line2":"2 52448  97.5721 338.8972 0013224 266.4130  93.5650 16.27529869237454","mean_motion":16.27529869,"eccentricity":0.0013224,"inclination_deg":97.5721,"raan_deg":338.8972,"arg_perigee_deg":266.413,"mean_anomaly_deg":93.565,"bstar":0.00077927,"rev_number":23745,"period_min":88.477638870295,"perigee_km":190.48854826879,"apogee_km":207.88425319905,"semimajor_km":6577.3234007339,"source":"CELESTRAK","updated_at":"2026-08-06T09:00:29.405993Z"}}